owner,sensor,date,latitude,longitude,vertical_datum,sea_water_temperature,qcFlag 
DISL,ioos:station:DISL:KATA:1,2017-11-07T17:30:00Z,30.2583,-88.2131,0.0,22.32,2 
DISL,ioos:station:DISL:KATA:1,2017-11-07T18:30:00Z,30.2583,-88.2131,0.0,22.25,2 
DISL,ioos:station:DISL:KATA:1,2017-11-07T19:30:00Z,30.2583,-88.2131,0.0,22.29,2 
DISL,ioos:station:DISL:KATA:1,2017-11-07T20:30:00Z,30.2583,-88.2131,0.0,22.33,2 
DISL,ioos:station:DISL:KATA:1,2017-11-07T21:30:00Z,30.2583,-88.2131,0.0,22.41,2 
DISL,ioos:station:DISL:KATA:1,2017-11-07T22:30:00Z,30.2583,-88.2131,0.0,22.49,2 
DISL,ioos:station:DISL:KATA:1,2017-11-07T23:30:00Z,30.2583,-88.2131,0.0,22.57,2 
DISL,ioos:station:DISL:KATA:1,2017-11-08T00:30:00Z,30.2583,-88.2131,0.0,22.85,2 
DISL,ioos:station:DISL:KATA:1,2017-11-08T01:30:00Z,30.2583,-88.2131,0.0,23.08,2 
DISL,ioos:station:DISL:KATA:1,2017-11-08T02:30:00Z,30.2583,-88.2131,0.0,23.42,2 
DISL,ioos:station:DISL:KATA:1,2017-11-08T03:30:00Z,30.2583,-88.2131,0.0,23.6,2 
DISL,ioos:station:DISL:KATA:1,2017-11-08T05:30:00Z,30.2583,-88.2131,0.0,23.61,2 
DISL,ioos:station:DISL:KATA:1,2017-11-08T06:30:00Z,30.2583,-88.2131,0.0,23.58,2 
DISL,ioos:station:DISL:KATA:1,2017-11-08T07:30:00Z,30.2583,-88.2131,0.0,23.57,2 
DISL,ioos:station:DISL:KATA:1,2017-11-08T08:30:00Z,30.2583,-88.2131,0.0,23.54,2 
DISL,ioos:station:DISL:KATA:1,2017-11-08T09:30:00Z,30.2583,-88.2131,0.0,23.5,2 
DISL,ioos:station:DISL:KATA:1,2017-11-08T10:30:00Z,30.2583,-88.2131,0.0,23.52,2 
DISL,ioos:station:DISL:KATA:1,2017-11-08T11:30:00Z,30.2583,-88.2131,0.0,23.38,2 
DISL,ioos:station:DISL:KATA:1,2017-11-08T12:30:00Z,30.2583,-88.2131,0.0,23.27,2 
DISL,ioos:station:DISL:KATA:1,2017-11-08T13:30:00Z,30.2583,-88.2131,0.0,23.14,2 
DISL,ioos:station:DISL:KATA:1,2017-11-08T14:30:00Z,30.2583,-88.2131,0.0,23.12,2 
DISL,ioos:station:DISL:KATA:1,2017-11-08T15:30:00Z,30.2583,-88.2131,0.0,23.12,2 
DISL,ioos:station:DISL:KATA:1,2017-11-08T16:30:00Z,30.2583,-88.2131,0.0,23.05,2 
DISL,ioos:station:DISL:KATA:1,2017-11-08T17:30:00Z,30.2583,-88.2131,0.0,23.07,2 
DISL,ioos:station:DISL:KATA:1,2017-11-08T18:30:00Z,30.2583,-88.2131,0.0,23.05,2 
DISL,ioos:station:DISL:KATA:1,2017-11-08T19:30:00Z,30.2583,-88.2131,0.0,23.06,2 
DISL,ioos:station:DISL:KATA:1,2017-11-08T20:30:00Z,30.2583,-88.2131,0.0,23.12,2 
DISL,ioos:station:DISL:KATA:1,2017-11-08T21:30:00Z,30.2583,-88.2131,0.0,23.17,2 
DISL,ioos:station:DISL:KATA:1,2017-11-08T22:30:00Z,30.2583,-88.2131,0.0,23.19,2 
DISL,ioos:station:DISL:KATA:1,2017-11-08T23:30:00Z,30.2583,-88.2131,0.0,23.23,2 
DISL,ioos:station:DISL:KATA:1,2017-11-09T00:30:00Z,30.2583,-88.2131,0.0,23.34,2 
DISL,ioos:station:DISL:KATA:1,2017-11-09T01:30:00Z,30.2583,-88.2131,0.0,23.45,2 
DISL,ioos:station:DISL:KATA:1,2017-11-09T02:30:00Z,30.2583,-88.2131,0.0,23.4,2 
DISL,ioos:station:DISL:KATA:1,2017-11-09T03:30:00Z,30.2583,-88.2131,0.0,23.38,2 
DISL,ioos:station:DISL:KATA:1,2017-11-09T04:00:00Z,30.2583,-88.2131,0.0,23.19,2 
DISL,ioos:station:DISL:KATA:1,2017-11-09T05:30:00Z,30.2583,-88.2131,0.0,23.16,2 
DISL,ioos:station:DISL:KATA:1,2017-11-09T06:00:00Z,30.2583,-88.2131,0.0,23.14,2 
DISL,ioos:station:DISL:KATA:1,2017-11-09T07:30:00Z,30.2583,-88.2131,0.0,23.07,2 
DISL,ioos:station:DISL:KATA:1,2017-11-09T08:30:00Z,30.2583,-88.2131,0.0,22.93,2 
DISL,ioos:station:DISL:KATA:1,2017-11-09T09:30:00Z,30.2583,-88.2131,0.0,23.01,2 
DISL,ioos:station:DISL:KATA:1,2017-11-09T10:30:00Z,30.2583,-88.2131,0.0,22.79,2 
DISL,ioos:station:DISL:KATA:1,2017-11-09T11:30:00Z,30.2583,-88.2131,0.0,22.74,2 
DISL,ioos:station:DISL:KATA:1,2017-11-09T12:30:00Z,30.2583,-88.2131,0.0,22.24,2 
DISL,ioos:station:DISL:KATA:1,2017-11-09T13:30:00Z,30.2583,-88.2131,0.0,22.49,2 
DISL,ioos:station:DISL:KATA:1,2017-11-09T14:30:00Z,30.2583,-88.2131,0.0,22.17,2 
DISL,ioos:station:DISL:KATA:1,2017-11-09T15:30:00Z,30.2583,-88.2131,0.0,22.0,2 
DISL,ioos:station:DISL:KATA:1,2017-11-09T16:30:00Z,30.2583,-88.2131,0.0,21.69,2 
DISL,ioos:station:DISL:KATA:1,2017-11-09T17:30:00Z,30.2583,-88.2131,0.0,21.72,2 
DISL,ioos:station:DISL:KATA:1,2017-11-09T18:30:00Z,30.2583,-88.2131,0.0,22.03,2 
DISL,ioos:station:DISL:KATA:1,2017-11-09T19:30:00Z,30.2583,-88.2131,0.0,21.99,2 
DISL,ioos:station:DISL:KATA:1,2017-11-09T20:30:00Z,30.2583,-88.2131,0.0,21.98,2 
DISL,ioos:station:DISL:KATA:1,2017-11-09T21:30:00Z,30.2583,-88.2131,0.0,22.14,2 
DISL,ioos:station:DISL:KATA:1,2017-11-09T22:30:00Z,30.2583,-88.2131,0.0,22.14,2 
DISL,ioos:station:DISL:KATA:1,2017-11-09T23:30:00Z,30.2583,-88.2131,0.0,21.89,2 
DISL,ioos:station:DISL:KATA:1,2017-11-10T00:30:00Z,30.2583,-88.2131,0.0,21.72,2 
DISL,ioos:station:DISL:KATA:1,2017-11-10T01:30:00Z,30.2583,-88.2131,0.0,21.5,2 
DISL,ioos:station:DISL:KATA:1,2017-11-10T02:30:00Z,30.2583,-88.2131,0.0,21.3,2 
DISL,ioos:station:DISL:KATA:1,2017-11-10T03:30:00Z,30.2583,-88.2131,0.0,21.25,2 
DISL,ioos:station:DISL:KATA:1,2017-11-10T04:30:00Z,30.2583,-88.2131,0.0,21.53,2 
DISL,ioos:station:DISL:KATA:1,2017-11-10T05:30:00Z,30.2583,-88.2131,0.0,21.27,2 
DISL,ioos:station:DISL:KATA:1,2017-11-10T06:30:00Z,30.2583,-88.2131,0.0,21.21,2 
DISL,ioos:station:DISL:KATA:1,2017-11-10T07:30:00Z,30.2583,-88.2131,0.0,21.22,2 
DISL,ioos:station:DISL:KATA:1,2017-11-10T08:30:00Z,30.2583,-88.2131,0.0,21.22,2 
DISL,ioos:station:DISL:KATA:1,2017-11-10T09:30:00Z,30.2583,-88.2131,0.0,21.25,2 
DISL,ioos:station:DISL:KATA:1,2017-11-10T10:30:00Z,30.2583,-88.2131,0.0,21.21,2 
DISL,ioos:station:DISL:KATA:1,2017-11-10T11:30:00Z,30.2583,-88.2131,0.0,21.23,2 
DISL,ioos:station:DISL:KATA:1,2017-11-10T12:30:00Z,30.2583,-88.2131,0.0,21.24,2 
DISL,ioos:station:DISL:KATA:1,2017-11-10T13:30:00Z,30.2583,-88.2131,0.0,21.2,2 
DISL,ioos:station:DISL:KATA:1,2017-11-10T14:30:00Z,30.2583,-88.2131,0.0,21.16,2 
DISL,ioos:station:DISL:KATA:1,2017-11-10T15:30:00Z,30.2583,-88.2131,0.0,20.78,2 
DISL,ioos:station:DISL:KATA:1,2017-11-10T16:30:00Z,30.2583,-88.2131,0.0,20.65,2 
DISL,ioos:station:DISL:KATA:1,2017-11-10T17:30:00Z,30.2583,-88.2131,0.0,20.65,2 
DISL,ioos:station:DISL:KATA:1,2017-11-10T18:30:00Z,30.2583,-88.2131,0.0,20.89,2 
DISL,ioos:station:DISL:KATA:1,2017-11-10T19:30:00Z,30.2583,-88.2131,0.0,20.9,2 
DISL,ioos:station:DISL:KATA:1,2017-11-10T20:30:00Z,30.2583,-88.2131,0.0,21.21,2 
DISL,ioos:station:DISL:KATA:1,2017-11-10T21:30:00Z,30.2583,-88.2131,0.0,21.07,2 
DISL,ioos:station:DISL:KATA:1,2017-11-10T22:30:00Z,30.2583,-88.2131,0.0,21.0,2 
DISL,ioos:station:DISL:KATA:1,2017-11-10T23:30:00Z,30.2583,-88.2131,0.0,20.86,2 
DISL,ioos:station:DISL:KATA:1,2017-11-11T00:30:00Z,30.2583,-88.2131,0.0,20.71,2 
DISL,ioos:station:DISL:KATA:1,2017-11-11T01:30:00Z,30.2583,-88.2131,0.0,20.52,2 
DISL,ioos:station:DISL:KATA:1,2017-11-11T02:30:00Z,30.2583,-88.2131,0.0,20.55,2 
DISL,ioos:station:DISL:KATA:1,2017-11-11T03:30:00Z,30.2583,-88.2131,0.0,20.55,2 
DISL,ioos:station:DISL:KATA:1,2017-11-11T04:30:00Z,30.2583,-88.2131,0.0,20.52,2 
DISL,ioos:station:DISL:KATA:1,2017-11-11T05:30:00Z,30.2583,-88.2131,0.0,20.48,2 
DISL,ioos:station:DISL:KATA:1,2017-11-11T06:30:00Z,30.2583,-88.2131,0.0,20.52,2 
DISL,ioos:station:DISL:KATA:1,2017-11-11T07:30:00Z,30.2583,-88.2131,0.0,20.56,2 
DISL,ioos:station:DISL:KATA:1,2017-11-11T08:30:00Z,30.2583,-88.2131,0.0,20.81,2 
DISL,ioos:station:DISL:KATA:1,2017-11-11T09:30:00Z,30.2583,-88.2131,0.0,20.81,2 
DISL,ioos:station:DISL:KATA:1,2017-11-11T10:30:00Z,30.2583,-88.2131,0.0,20.8,2 
DISL,ioos:station:DISL:KATA:1,2017-11-11T11:30:00Z,30.2583,-88.2131,0.0,20.76,2 
DISL,ioos:station:DISL:KATA:1,2017-11-11T12:30:00Z,30.2583,-88.2131,0.0,20.7,2 
DISL,ioos:station:DISL:KATA:1,2017-11-11T13:30:00Z,30.2583,-88.2131,0.0,20.62,2 
DISL,ioos:station:DISL:KATA:1,2017-11-11T14:30:00Z,30.2583,-88.2131,0.0,20.69,2 
DISL,ioos:station:DISL:KATA:1,2017-11-11T15:30:00Z,30.2583,-88.2131,0.0,20.58,2 
DISL,ioos:station:DISL:KATA:1,2017-11-11T16:30:00Z,30.2583,-88.2131,0.0,20.51,2 
DISL,ioos:station:DISL:KATA:1,2017-11-11T17:30:00Z,30.2583,-88.2131,0.0,20.54,2 
DISL,ioos:station:DISL:KATA:1,2017-11-11T18:30:00Z,30.2583,-88.2131,0.0,20.46,2 
DISL,ioos:station:DISL:KATA:1,2017-11-11T19:30:00Z,30.2583,-88.2131,0.0,20.6,2 
DISL,ioos:station:DISL:KATA:1,2017-11-11T20:30:00Z,30.2583,-88.2131,0.0,20.62,2 
DISL,ioos:station:DISL:KATA:1,2017-11-11T21:30:00Z,30.2583,-88.2131,0.0,20.5,2 
DISL,ioos:station:DISL:KATA:1,2017-11-11T22:00:00Z,30.2583,-88.2131,0.0,20.39,2 
DISL,ioos:station:DISL:KATA:1,2017-11-11T23:30:00Z,30.2583,-88.2131,0.0,20.34,2 
DISL,ioos:station:DISL:KATA:1,2017-11-12T00:30:00Z,30.2583,-88.2131,0.0,20.19,2 
DISL,ioos:station:DISL:KATA:1,2017-11-12T01:30:00Z,30.2583,-88.2131,0.0,20.19,2 
DISL,ioos:station:DISL:KATA:1,2017-11-12T02:30:00Z,30.2583,-88.2131,0.0,20.23,2 
DISL,ioos:station:DISL:KATA:1,2017-11-12T04:30:00Z,30.2583,-88.2131,0.0,20.27,2 
DISL,ioos:station:DISL:KATA:1,2017-11-12T05:30:00Z,30.2583,-88.2131,0.0,20.34,2 
DISL,ioos:station:DISL:KATA:1,2017-11-12T06:30:00Z,30.2583,-88.2131,0.0,20.4,2 
DISL,ioos:station:DISL:KATA:1,2017-11-12T07:30:00Z,30.2583,-88.2131,0.0,20.41,2 
DISL,ioos:station:DISL:KATA:1,2017-11-12T09:00:00Z,30.2583,-88.2131,0.0,20.23,2 
DISL,ioos:station:DISL:KATA:1,2017-11-12T10:30:00Z,30.2583,-88.2131,0.0,20.12,2 
DISL,ioos:station:DISL:KATA:1,2017-11-12T11:30:00Z,30.2583,-88.2131,0.0,20.09,2 
DISL,ioos:station:DISL:KATA:1,2017-11-12T13:00:00Z,30.2583,-88.2131,0.0,20.02,2 
DISL,ioos:station:DISL:KATA:1,2017-11-12T15:30:00Z,30.2583,-88.2131,0.0,19.27,2 
DISL,ioos:station:DISL:KATA:1,2017-11-12T16:30:00Z,30.2583,-88.2131,0.0,19.05,2 
DISL,ioos:station:DISL:KATA:1,2017-11-12T17:30:00Z,30.2583,-88.2131,0.0,19.1,2 
DISL,ioos:station:DISL:KATA:1,2017-11-12T18:30:00Z,30.2583,-88.2131,0.0,19.24,2 
DISL,ioos:station:DISL:KATA:1,2017-11-12T19:30:00Z,30.2583,-88.2131,0.0,19.31,2 
DISL,ioos:station:DISL:KATA:1,2017-11-12T20:30:00Z,30.2583,-88.2131,0.0,19.5,2 
DISL,ioos:station:DISL:KATA:1,2017-11-12T21:30:00Z,30.2583,-88.2131,0.0,20.04,2 
DISL,ioos:station:DISL:KATA:1,2017-11-12T22:30:00Z,30.2583,-88.2131,0.0,19.68,2 
DISL,ioos:station:DISL:KATA:1,2017-11-12T23:00:00Z,30.2583,-88.2131,0.0,19.62,2 
DISL,ioos:station:DISL:KATA:1,2017-11-13T00:30:00Z,30.2583,-88.2131,0.0,19.65,2 
DISL,ioos:station:DISL:KATA:1,2017-11-13T01:30:00Z,30.2583,-88.2131,0.0,19.69,2 
DISL,ioos:station:DISL:KATA:1,2017-11-13T02:30:00Z,30.2583,-88.2131,0.0,19.68,2 
DISL,ioos:station:DISL:KATA:1,2017-11-13T06:30:00Z,30.2583,-88.2131,0.0,19.64,2 
DISL,ioos:station:DISL:KATA:1,2017-11-13T07:30:00Z,30.2583,-88.2131,0.0,19.29,2 
DISL,ioos:station:DISL:KATA:1,2017-11-13T08:30:00Z,30.2583,-88.2131,0.0,19.19,2 
DISL,ioos:station:DISL:KATA:1,2017-11-13T09:30:00Z,30.2583,-88.2131,0.0,19.26,2 
DISL,ioos:station:DISL:KATA:1,2017-11-13T10:30:00Z,30.2583,-88.2131,0.0,19.26,2 
DISL,ioos:station:DISL:KATA:1,2017-11-13T11:30:00Z,30.2583,-88.2131,0.0,19.12,2 
DISL,ioos:station:DISL:KATA:1,2017-11-13T12:30:00Z,30.2583,-88.2131,0.0,18.92,2 
DISL,ioos:station:DISL:KATA:1,2017-11-13T13:30:00Z,30.2583,-88.2131,0.0,18.73,2 
DISL,ioos:station:DISL:KATA:1,2017-11-13T14:30:00Z,30.2583,-88.2131,0.0,18.66,2 
DISL,ioos:station:DISL:KATA:1,2017-11-13T15:30:00Z,30.2583,-88.2131,0.0,18.67,2 
DISL,ioos:station:DISL:KATA:1,2017-11-13T16:30:00Z,30.2583,-88.2131,0.0,18.58,2 
DISL,ioos:station:DISL:KATA:1,2017-11-13T17:30:00Z,30.2583,-88.2131,0.0,18.61,2 
DISL,ioos:station:DISL:KATA:1,2017-11-13T18:30:00Z,30.2583,-88.2131,0.0,18.67,2 
DISL,ioos:station:DISL:KATA:1,2017-11-13T19:30:00Z,30.2583,-88.2131,0.0,18.71,2 
DISL,ioos:station:DISL:KATA:1,2017-11-13T20:30:00Z,30.2583,-88.2131,0.0,18.78,2 
DISL,ioos:station:DISL:KATA:1,2017-11-13T21:30:00Z,30.2583,-88.2131,0.0,18.83,2 
DISL,ioos:station:DISL:KATA:1,2017-11-13T22:30:00Z,30.2583,-88.2131,0.0,18.83,2 
DISL,ioos:station:DISL:KATA:1,2017-11-14T00:30:00Z,30.2583,-88.2131,0.0,18.88,2 
DISL,ioos:station:DISL:KATA:1,2017-11-14T01:30:00Z,30.2583,-88.2131,0.0,18.91,2 
DISL,ioos:station:DISL:KATA:1,2017-11-14T02:30:00Z,30.2583,-88.2131,0.0,18.95,2 
DISL,ioos:station:DISL:KATA:1,2017-11-14T03:30:00Z,30.2583,-88.2131,0.0,18.99,2 
DISL,ioos:station:DISL:KATA:1,2017-11-14T04:30:00Z,30.2583,-88.2131,0.0,19.02,2 
DISL,ioos:station:DISL:KATA:1,2017-11-14T05:30:00Z,30.2583,-88.2131,0.0,19.13,2 
DISL,ioos:station:DISL:KATA:1,2017-11-14T06:30:00Z,30.2583,-88.2131,0.0,19.24,2 
DISL,ioos:station:DISL:KATA:1,2017-11-14T07:30:00Z,30.2583,-88.2131,0.0,19.43,2 
DISL,ioos:station:DISL:KATA:1,2017-11-14T08:30:00Z,30.2583,-88.2131,0.0,19.82,2 
DISL,ioos:station:DISL:KATA:1,2017-11-14T09:30:00Z,30.2583,-88.2131,0.0,20.04,2 
DISL,ioos:station:DISL:KATA:1,2017-11-14T10:30:00Z,30.2583,-88.2131,0.0,20.11,2 
DISL,ioos:station:DISL:KATA:1,2017-11-14T11:30:00Z,30.2583,-88.2131,0.0,20.22,2 
DISL,ioos:station:DISL:KATA:1,2017-11-14T12:30:00Z,30.2583,-88.2131,0.0,20.34,2 
DISL,ioos:station:DISL:KATA:1,2017-11-14T13:30:00Z,30.2583,-88.2131,0.0,20.48,2 
DISL,ioos:station:DISL:KATA:1,2017-11-14T14:30:00Z,30.2583,-88.2131,0.0,20.56,2 
DISL,ioos:station:DISL:KATA:1,2017-11-14T15:30:00Z,30.2583,-88.2131,0.0,20.62,2 
DISL,ioos:station:DISL:KATA:1,2017-11-14T16:30:00Z,30.2583,-88.2131,0.0,20.73,2 
DISL,ioos:station:DISL:KATA:1,2017-11-14T17:30:00Z,30.2583,-88.2131,0.0,20.84,2 
DISL,ioos:station:DISL:KATA:1,2017-11-14T18:30:00Z,30.2583,-88.2131,0.0,20.92,2 
DISL,ioos:station:DISL:KATA:1,2017-11-14T19:30:00Z,30.2583,-88.2131,0.0,20.94,2 
DISL,ioos:station:DISL:KATA:1,2017-11-14T20:30:00Z,30.2583,-88.2131,0.0,20.94,2 
DISL,ioos:station:DISL:KATA:1,2017-11-14T21:30:00Z,30.2583,-88.2131,0.0,20.91,2 
DISL,ioos:station:DISL:KATA:1,2017-11-14T22:30:00Z,30.2583,-88.2131,0.0,20.85,2 
DISL,ioos:station:DISL:KATA:1,2017-11-14T23:30:00Z,30.2583,-88.2131,0.0,20.81,2 
DISL,ioos:station:DISL:KATA:1,2017-11-15T00:30:00Z,30.2583,-88.2131,0.0,20.78,2 
DISL,ioos:station:DISL:KATA:1,2017-11-15T01:30:00Z,30.2583,-88.2131,0.0,20.77,2 
DISL,ioos:station:DISL:KATA:1,2017-11-15T02:30:00Z,30.2583,-88.2131,0.0,20.73,2 
DISL,ioos:station:DISL:KATA:1,2017-11-15T03:30:00Z,30.2583,-88.2131,0.0,20.75,2 
DISL,ioos:station:DISL:KATA:1,2017-11-15T04:30:00Z,30.2583,-88.2131,0.0,20.71,2 
DISL,ioos:station:DISL:KATA:1,2017-11-15T05:30:00Z,30.2583,-88.2131,0.0,20.69,2 
DISL,ioos:station:DISL:KATA:1,2017-11-15T06:30:00Z,30.2583,-88.2131,0.0,20.7,2 
DISL,ioos:station:DISL:KATA:1,2017-11-15T07:30:00Z,30.2583,-88.2131,0.0,20.67,2 
DISL,ioos:station:DISL:KATA:1,2017-11-15T08:30:00Z,30.2583,-88.2131,0.0,20.69,2 
DISL,ioos:station:DISL:KATA:1,2017-11-15T09:30:00Z,30.2583,-88.2131,0.0,20.71,2 
DISL,ioos:station:DISL:KATA:1,2017-11-15T10:30:00Z,30.2583,-88.2131,0.0,20.75,2 
DISL,ioos:station:DISL:KATA:1,2017-11-15T11:30:00Z,30.2583,-88.2131,0.0,20.85,2 
DISL,ioos:station:DISL:KATA:1,2017-11-15T12:30:00Z,30.2583,-88.2131,0.0,21.02,2 
DISL,ioos:station:DISL:KATA:1,2017-11-15T13:30:00Z,30.2583,-88.2131,0.0,21.06,2 
DISL,ioos:station:DISL:KATA:1,2017-11-15T14:30:00Z,30.2583,-88.2131,0.0,21.0,2 
DISL,ioos:station:DISL:KATA:1,2017-11-15T15:30:00Z,30.2583,-88.2131,0.0,20.98,2 
DISL,ioos:station:DISL:KATA:1,2017-11-15T16:30:00Z,30.2583,-88.2131,0.0,20.86,2 
DISL,ioos:station:DISL:KATA:1,2017-11-15T17:30:00Z,30.2583,-88.2131,0.0,20.82,2 
DISL,ioos:station:DISL:KATA:1,2017-11-15T18:30:00Z,30.2583,-88.2131,0.0,20.69,2 
DISL,ioos:station:DISL:KATA:1,2017-11-15T19:30:00Z,30.2583,-88.2131,0.0,20.66,2 
DISL,ioos:station:DISL:KATA:1,2017-11-15T20:30:00Z,30.2583,-88.2131,0.0,20.68,2 
DISL,ioos:station:DISL:KATA:1,2017-11-15T21:30:00Z,30.2583,-88.2131,0.0,20.63,2 
DISL,ioos:station:DISL:KATA:1,2017-11-15T22:30:00Z,30.2583,-88.2131,0.0,20.59,2 
DISL,ioos:station:DISL:KATA:1,2017-11-15T23:30:00Z,30.2583,-88.2131,0.0,20.52,2 
DISL,ioos:station:DISL:KATA:1,2017-11-16T00:30:00Z,30.2583,-88.2131,0.0,20.47,2 
DISL,ioos:station:DISL:KATA:1,2017-11-16T01:30:00Z,30.2583,-88.2131,0.0,20.43,2 
DISL,ioos:station:DISL:KATA:1,2017-11-16T02:30:00Z,30.2583,-88.2131,0.0,20.45,2 
DISL,ioos:station:DISL:KATA:1,2017-11-16T03:30:00Z,30.2583,-88.2131,0.0,20.44,2 
DISL,ioos:station:DISL:KATA:1,2017-11-16T04:30:00Z,30.2583,-88.2131,0.0,20.48,2 
DISL,ioos:station:DISL:KATA:1,2017-11-16T05:30:00Z,30.2583,-88.2131,0.0,20.47,2 
DISL,ioos:station:DISL:KATA:1,2017-11-16T06:30:00Z,30.2583,-88.2131,0.0,20.45,2 
DISL,ioos:station:DISL:KATA:1,2017-11-16T07:30:00Z,30.2583,-88.2131,0.0,20.45,2 
DISL,ioos:station:DISL:KATA:1,2017-11-16T08:30:00Z,30.2583,-88.2131,0.0,20.44,2 
DISL,ioos:station:DISL:KATA:1,2017-11-16T09:30:00Z,30.2583,-88.2131,0.0,20.46,2 
DISL,ioos:station:DISL:KATA:1,2017-11-16T10:30:00Z,30.2583,-88.2131,0.0,20.48,2 
DISL,ioos:station:DISL:KATA:1,2017-11-16T11:30:00Z,30.2583,-88.2131,0.0,20.39,2 
DISL,ioos:station:DISL:KATA:1,2017-11-16T12:30:00Z,30.2583,-88.2131,0.0,20.44,2 
DISL,ioos:station:DISL:KATA:1,2017-11-16T13:30:00Z,30.2583,-88.2131,0.0,20.46,2 
DISL,ioos:station:DISL:KATA:1,2017-11-16T14:30:00Z,30.2583,-88.2131,0.0,20.55,2 
DISL,ioos:station:DISL:KATA:1,2017-11-16T15:30:00Z,30.2583,-88.2131,0.0,20.57,2 
DISL,ioos:station:DISL:KATA:1,2017-11-16T16:30:00Z,30.2583,-88.2131,0.0,20.59,2 
DISL,ioos:station:DISL:KATA:1,2017-11-16T17:30:00Z,30.2583,-88.2131,0.0,20.58,2 
DISL,ioos:station:DISL:KATA:1,2017-11-16T18:30:00Z,30.2583,-88.2131,0.0,20.56,2 
DISL,ioos:station:DISL:KATA:1,2017-11-16T19:30:00Z,30.2583,-88.2131,0.0,20.53,2 
DISL,ioos:station:DISL:KATA:1,2017-11-16T20:30:00Z,30.2583,-88.2131,0.0,20.56,2 
DISL,ioos:station:DISL:KATA:1,2017-11-16T21:30:00Z,30.2583,-88.2131,0.0,20.56,2 
DISL,ioos:station:DISL:KATA:1,2017-11-16T22:30:00Z,30.2583,-88.2131,0.0,20.57,2 
DISL,ioos:station:DISL:KATA:1,2017-11-16T23:30:00Z,30.2583,-88.2131,0.0,20.56,2 
DISL,ioos:station:DISL:KATA:1,2017-11-17T00:30:00Z,30.2583,-88.2131,0.0,20.52,2 
DISL,ioos:station:DISL:KATA:1,2017-11-17T01:30:00Z,30.2583,-88.2131,0.0,20.48,2 
DISL,ioos:station:DISL:KATA:1,2017-11-17T02:00:00Z,30.2583,-88.2131,0.0,20.46,2 
DISL,ioos:station:DISL:KATA:1,2017-11-17T03:30:00Z,30.2583,-88.2131,0.0,20.44,2 
DISL,ioos:station:DISL:KATA:1,2017-11-17T04:30:00Z,30.2583,-88.2131,0.0,20.45,2 
DISL,ioos:station:DISL:KATA:1,2017-11-17T05:30:00Z,30.2583,-88.2131,0.0,20.47,2 
DISL,ioos:station:DISL:KATA:1,2017-11-17T06:00:00Z,30.2583,-88.2131,0.0,20.48,2 
DISL,ioos:station:DISL:KATA:1,2017-11-17T07:00:00Z,30.2583,-88.2131,0.0,20.44,2 
DISL,ioos:station:DISL:KATA:1,2017-11-17T09:00:00Z,30.2583,-88.2131,0.0,20.34,2 
DISL,ioos:station:DISL:KATA:1,2017-11-17T10:30:00Z,30.2583,-88.2131,0.0,20.44,2 
DISL,ioos:station:DISL:KATA:1,2017-11-17T11:30:00Z,30.2583,-88.2131,0.0,20.53,2 
DISL,ioos:station:DISL:KATA:1,2017-11-17T12:30:00Z,30.2583,-88.2131,0.0,20.59,2 
DISL,ioos:station:DISL:KATA:1,2017-11-17T13:30:00Z,30.2583,-88.2131,0.0,20.6,2 
DISL,ioos:station:DISL:KATA:1,2017-11-17T14:30:00Z,30.2583,-88.2131,0.0,20.64,2 
DISL,ioos:station:DISL:KATA:1,2017-11-17T15:30:00Z,30.2583,-88.2131,0.0,20.67,2 
DISL,ioos:station:DISL:KATA:1,2017-11-17T16:30:00Z,30.2583,-88.2131,0.0,20.58,2 
DISL,ioos:station:DISL:KATA:1,2017-11-17T17:30:00Z,30.2583,-88.2131,0.0,20.5,2 
DISL,ioos:station:DISL:KATA:1,2017-11-17T18:30:00Z,30.2583,-88.2131,0.0,20.41,2 
DISL,ioos:station:DISL:KATA:1,2017-11-17T19:30:00Z,30.2583,-88.2131,0.0,20.37,2 
DISL,ioos:station:DISL:KATA:1,2017-11-18T01:30:00Z,30.2583,-88.2131,0.0,20.56,2 
DISL,ioos:station:DISL:KATA:1,2017-11-18T07:30:00Z,30.2583,-88.2131,0.0,20.56,2 
DISL,ioos:station:DISL:KATA:1,2017-11-18T13:30:00Z,30.2583,-88.2131,0.0,20.42,2 
DISL,ioos:station:DISL:KATA:1,2017-11-18T19:30:00Z,30.2583,-88.2131,0.0,20.62,2 
DISL,ioos:station:DISL:KATA:1,2017-11-19T01:30:00Z,30.2583,-88.2131,0.0,20.77,2 
DISL,ioos:station:DISL:KATA:1,2017-11-19T07:30:00Z,30.2583,-88.2131,0.0,20.52,2 
DISL,ioos:station:DISL:KATA:1,2017-11-19T13:30:00Z,30.2583,-88.2131,0.0,19.57,2 
DISL,ioos:station:DISL:KATA:1,2017-11-24T19:30:00Z,30.2583,-88.2131,0.0,14.95,2 
DISL,ioos:station:DISL:KATA:1,2017-11-24T20:30:00Z,30.2583,-88.2131,0.0,15.03,2 
DISL,ioos:station:DISL:KATA:1,2017-11-24T21:30:00Z,30.2583,-88.2131,0.0,15.09,2 
DISL,ioos:station:DISL:KATA:1,2017-11-24T22:30:00Z,30.2583,-88.2131,0.0,15.15,2 
DISL,ioos:station:DISL:KATA:1,2017-11-24T23:30:00Z,30.2583,-88.2131,0.0,15.19,2 
DISL,ioos:station:DISL:KATA:1,2017-11-25T00:30:00Z,30.2583,-88.2131,0.0,15.1,2 
DISL,ioos:station:DISL:KATA:1,2017-11-25T01:30:00Z,30.2583,-88.2131,0.0,15.05,2 
DISL,ioos:station:DISL:KATA:1,2017-11-25T02:30:00Z,30.2583,-88.2131,0.0,15.16,2 
DISL,ioos:station:DISL:KATA:1,2017-11-25T03:30:00Z,30.2583,-88.2131,0.0,15.14,2 
DISL,ioos:station:DISL:KATA:1,2017-11-25T04:30:00Z,30.2583,-88.2131,0.0,15.17,2 
DISL,ioos:station:DISL:KATA:1,2017-11-25T05:00:00Z,30.2583,-88.2131,0.0,15.15,2 
DISL,ioos:station:DISL:KATA:1,2017-11-25T06:30:00Z,30.2583,-88.2131,0.0,15.14,2 
DISL,ioos:station:DISL:KATA:1,2017-11-25T07:30:00Z,30.2583,-88.2131,0.0,15.12,2 
DISL,ioos:station:DISL:KATA:1,2017-11-25T08:30:00Z,30.2583,-88.2131,0.0,15.12,2 
DISL,ioos:station:DISL:KATA:1,2017-11-25T09:30:00Z,30.2583,-88.2131,0.0,15.13,2 
DISL,ioos:station:DISL:KATA:1,2017-11-25T10:00:00Z,30.2583,-88.2131,0.0,15.11,2 
DISL,ioos:station:DISL:KATA:1,2017-11-25T11:30:00Z,30.2583,-88.2131,0.0,15.0,2 
DISL,ioos:station:DISL:KATA:1,2017-11-25T12:30:00Z,30.2583,-88.2131,0.0,14.87,2 
DISL,ioos:station:DISL:KATA:1,2017-11-25T13:30:00Z,30.2583,-88.2131,0.0,14.78,2 
DISL,ioos:station:DISL:KATA:1,2017-11-25T14:30:00Z,30.2583,-88.2131,0.0,14.78,2 
DISL,ioos:station:DISL:KATA:1,2017-11-25T15:30:00Z,30.2583,-88.2131,0.0,14.72,2 
DISL,ioos:station:DISL:KATA:1,2017-11-25T16:30:00Z,30.2583,-88.2131,0.0,14.67,2 
DISL,ioos:station:DISL:KATA:1,2017-11-25T17:30:00Z,30.2583,-88.2131,0.0,14.83,2 
DISL,ioos:station:DISL:KATA:1,2017-11-25T18:30:00Z,30.2583,-88.2131,0.0,14.86,2 
DISL,ioos:station:DISL:KATA:1,2017-11-25T19:30:00Z,30.2583,-88.2131,0.0,14.9,2 
DISL,ioos:station:DISL:KATA:1,2017-11-25T20:30:00Z,30.2583,-88.2131,0.0,14.93,2 
DISL,ioos:station:DISL:KATA:1,2017-11-25T21:30:00Z,30.2583,-88.2131,0.0,14.98,2 
DISL,ioos:station:DISL:KATA:1,2017-11-25T22:30:00Z,30.2583,-88.2131,0.0,14.94,2 
DISL,ioos:station:DISL:KATA:1,2017-11-25T23:30:00Z,30.2583,-88.2131,0.0,15.11,2 
DISL,ioos:station:DISL:KATA:1,2017-11-26T00:30:00Z,30.2583,-88.2131,0.0,15.1,2 
DISL,ioos:station:DISL:KATA:1,2017-11-26T01:30:00Z,30.2583,-88.2131,0.0,15.09,2 
DISL,ioos:station:DISL:KATA:1,2017-11-26T02:30:00Z,30.2583,-88.2131,0.0,15.11,2 
DISL,ioos:station:DISL:KATA:1,2017-11-26T03:30:00Z,30.2583,-88.2131,0.0,15.17,2 
DISL,ioos:station:DISL:KATA:1,2017-11-26T04:30:00Z,30.2583,-88.2131,0.0,15.31,2 
DISL,ioos:station:DISL:KATA:1,2017-11-26T05:30:00Z,30.2583,-88.2131,0.0,15.31,2 
DISL,ioos:station:DISL:KATA:1,2017-11-26T06:30:00Z,30.2583,-88.2131,0.0,15.29,2 
DISL,ioos:station:DISL:KATA:1,2017-11-26T07:30:00Z,30.2583,-88.2131,0.0,15.28,2 
DISL,ioos:station:DISL:KATA:1,2017-11-26T08:30:00Z,30.2583,-88.2131,0.0,15.25,2 
DISL,ioos:station:DISL:KATA:1,2017-11-26T09:30:00Z,30.2583,-88.2131,0.0,15.27,2 
DISL,ioos:station:DISL:KATA:1,2017-11-26T10:30:00Z,30.2583,-88.2131,0.0,15.29,2 
DISL,ioos:station:DISL:KATA:1,2017-11-26T11:30:00Z,30.2583,-88.2131,0.0,15.31,2 
DISL,ioos:station:DISL:KATA:1,2017-11-26T12:30:00Z,30.2583,-88.2131,0.0,15.12,2 
DISL,ioos:station:DISL:KATA:1,2017-11-26T13:30:00Z,30.2583,-88.2131,0.0,14.69,2 
DISL,ioos:station:DISL:KATA:1,2017-11-26T14:30:00Z,30.2583,-88.2131,0.0,14.59,2 
DISL,ioos:station:DISL:KATA:1,2017-11-26T15:30:00Z,30.2583,-88.2131,0.0,14.64,2 
DISL,ioos:station:DISL:KATA:1,2017-11-26T16:30:00Z,30.2583,-88.2131,0.0,15.2,2 
DISL,ioos:station:DISL:KATA:1,2017-11-26T17:30:00Z,30.2583,-88.2131,0.0,15.13,2 
DISL,ioos:station:DISL:KATA:1,2017-11-26T18:30:00Z,30.2583,-88.2131,0.0,15.22,2 
DISL,ioos:station:DISL:KATA:1,2017-11-26T19:30:00Z,30.2583,-88.2131,0.0,15.34,2 
DISL,ioos:station:DISL:KATA:1,2017-11-26T20:30:00Z,30.2583,-88.2131,0.0,15.5,2 
DISL,ioos:station:DISL:KATA:1,2017-11-26T21:30:00Z,30.2583,-88.2131,0.0,15.5,2 
DISL,ioos:station:DISL:KATA:1,2017-11-26T22:30:00Z,30.2583,-88.2131,0.0,15.37,2 
DISL,ioos:station:DISL:KATA:1,2017-11-26T23:30:00Z,30.2583,-88.2131,0.0,15.5,2 
DISL,ioos:station:DISL:KATA:1,2017-11-27T00:30:00Z,30.2583,-88.2131,0.0,15.4,2 
DISL,ioos:station:DISL:KATA:1,2017-11-27T01:30:00Z,30.2583,-88.2131,0.0,15.29,2 